Location: Mason Neck State Park
(38.6428°N, 77.1981°W)
Time: 04:13:15
(UTC-04:00)

ISS - Visible Passes

Search period start: 27 March 2015 00:00
Search period end: 06 April 2015 00:00
Orbit: 396 x 406 km, 51.6° (Epoch: 26 March)

Date Brightness Start Highest point End Pass type
(mag) Time Alt. Az. Time Alt. Az. Time Alt. Az.
27 Mar -0.4 05:03:00 10° N 05:04:18 12° NNE 05:05:48 10° NE visible
28 Mar -1.4 05:45:00 10° NNW 05:47:52 29° NNE 05:50:45 10° E visible
29 Mar -0.9 04:53:33 17° N 04:54:18 19° NNE 04:56:42 10° ENE visible
29 Mar -3.3 06:27:46 10° WNW 06:30:58 62° SW 06:34:09 10° SE visible
30 Mar -2.9 05:35:21 18° NW 05:37:35 61° NE 05:40:46 10° ESE visible
31 Mar -1.3 04:44:46 29° ENE 04:44:46 29° ENE 04:47:02 10° E visible
31 Mar -2.1 06:17:41 10° WNW 06:20:23 24° SW 06:23:02 10° S visible
01 Apr -3.3 05:27:06 51° SW 05:27:06 51° SW 05:30:10 10° SE visible
02 Apr -1.1 06:09:47 10° SW 06:09:47 10° SW 06:09:48 10° SW visible
02 Apr -1.8 21:08:12 10° SSW 21:09:48 25° SSW 21:09:48 25° SSW visible
03 Apr -2.0 20:15:21 10° S 20:17:54 22° SE 20:19:57 13° E visible
03 Apr -0.9 21:51:07 10° WSW 21:52:37 22° W 21:52:37 22° W visible
04 Apr -3.1 20:57:17 10° WSW 21:00:32 71° NW 21:02:25 23° NE visible
05 Apr -3.2 20:03:46 10° SW 20:06:57 53° SE 20:10:09 10° ENE visible
05 Apr -0.9 21:41:01 10° WNW 21:43:33 20° NNW 21:44:30 18° N visible
